This demonstration page uses our WeatherBlox Daily Observations layout. Learn more.

Left ArrowRight Arrow

38.88101, -77.10428

Hourly Observations for May 9, 2022

Temp ( °F °C ) Dew Point ( °F °C ) Humidity (%) Winds ( mph kmh ) Pressure ( in mb ) Visibility ( mi km ) Precip ( " mm )
12:52 am 00:52 Clear 49 9.4 41 5 74 74 NE 3 6 30.16 1021 10 16 0.00 0.00
1:52 am 01:52 Mostly Clear 48 8.9 39 3.9 71 71 Calm 30.15 1021 10 16 0.00 0.00
2:52 am 02:52 Mostly Clear 46 7.8 38 3.3 73 73 N 3 6 30.14 1021 10 16 0.00 0.00
3:52 am 03:52 Mostly Clear 44 6.7 37 2.8 76 76 NNW 8 13 30.14 1021 10 16 0.00 0.00
4:52 am 04:52 Partly Cloudy 44 6.7 36 2.2 73 73 NNW 8 13 30.14 1021 10 16 0.00 0.00
5:52 am 05:52 Mostly Clear 44 6.7 35 1.7 71 71 NNW 10 17 30.16 1022 10 16 0.00 0.00
6:52 am 06:52 Mostly Sunny 47 8.3 36 2.2 66 66 NNW 10 17 30.19 1022 10 16 0.00 0.00
7:52 am 07:52 Sunny 52 11.1 33 0.6 49 49 N 12 19 30.21 1023 10 16 0.00 0.00
8:52 am 08:52 Sunny 55 12.8 28 -2.2 35 35 NNE 15 24 30.23 1024 10 16 0.00 0.00
9:52 am 09:52 Sunny 58 14.4 26 -3.3 29 29 NNE 14 22 30.24 1024 10 16 0.00 0.00
10:52 am 10:52 Sunny 61 16.1 26 -3.3 26 26 NNE 13 20 30.24 1024 10 16 0.00 0.00
11:52 am 11:52 Sunny 64 17.8 27 -2.8 25 25 NNE 13 20 30.24 1024 10 16 0.00 0.00
12:52 pm 12:52 Sunny 65 18.3 29 -1.7 26 26 ENE 13 20 30.22 1023 10 16 0.00 0.00
1:52 pm 13:52 Sunny 68 20 29 -1.7 23 23 NE 10 17 30.21 1023 10 16 0.00 0.00
2:52 pm 14:52 Sunny 69 20.6 33 0.6 26 26 NE 10 17 30.20 1023 10 16 0.00 0.00
3:52 pm 15:52 Sunny 70 21.1 30 -1.1 23 23 NNE 8 13 30.19 1022 10 16 0.00 0.00
4:52 pm 16:52 Sunny 70 21.1 33 0.6 26 26 NE 7 11 30.19 1022 10 16 0.00 0.00
5:52 pm 17:52 Sunny 69 20.6 36 2.2 30 30 ENE 8 13 30.19 1022 10 16 0.00 0.00
6:52 pm 18:52 Sunny 67 19.4 36 2.2 32 32 ENE 8 13 30.19 1022 10 16 0.00 0.00
7:52 pm 19:52 Sunny 64 17.8 37 2.8 37 37 NE 8 13 30.21 1023 10 16 0.00 0.00
8:52 pm 20:52 Clear 63 17.2 34 1.1 34 34 ENE 5 7 30.22 1023 10 16 0.00 0.00
9:52 pm 21:52 Clear 60 15.6 39 3.9 46 46 Calm 30.23 1024 10 16 0.00 0.00
10:52 pm 22:52 Partly Cloudy 55 12.8 42 5.6 62 62 N 5 7 30.24 1024 10 16 0.00 0.00
11:52 pm 23:52 Partly Cloudy 54 12.2 42 5.6 64 64 N 6 9 30.25 1024 10 16 0.00 0.00

Powered by AerisWeather